Regional Weather Roundup
Issued by NWS Cleveland, OH

Home | Current Version | Previous Version | Graphics & Text | Print | Product List | Glossary On
Versions: 1 2 3 4 5 6 7 8 9 10 11 12 13 14 15 16 17 18 19 20 21 22 23 24 25 26 27 28 29 30 31 32 33 34 35 36 37 38 39 40 41 42 43 44 45 46 47 48 49 50
000
ASUS41 KCLE 301312
RWRCLE
OHIO REGIONAL WEATHER ROUNDUP
NATIONAL WEATHER SERVICE WILMINGTON, OH
900 AM EDT SAT JUL 30 2016

NOTE: "FAIR" INDICATES FEW OR NO CLOUDS BELOW 12,000 FEET WITH NO
SIGNIFICANT WEATHER AND/OR OBSTRUCTIONS TO VISIBILITY.

OHZ001>008-015>018-024>027-034-035-043-044-301400-
   NORTHWEST OHIO

CITY           SKY/WX    TMP DP  RH WIND       PRES   REMARKS
DEFIANCE       CLOUDY    70  63  78 N3        29.96R
FINDLAY        CLOUDY    73  68  84 VRB3      29.94R HAZE
TOLEDO EXPRESS CLOUDY    71  67  87 NE5       29.95R
TOLEDO EXEC    CLOUDY    76  69  79 NE5       29.95R
LIMA           FAIR      72  70  93 SW5       29.95S
$$

OHZ009>014-019>023-028>033-038-089-301400-
   NORTHEAST OHIO

CITY           SKY/WX    TMP DP  RH WIND       PRES   REMARKS
CLE-HOPKINS    PTSUNNY   76  65  68 E5        29.96S
CLE-LAKEFRONT  PTSUNNY   75  67  76 SE7       29.93S
CUY CO. ARPT   NOT AVBL
LORAIN-ELYRIA  PTSUNNY   72  67  84 S5        29.95S
ASHTABULA      PTSUNNY   70  68  93 E8        29.98S
AKRON-CANTON   PTSUNNY   72  68  87 S5        29.97R FOG
WOOSTER        FAIR      72  67  84 SW5       29.97S
MANSFIELD      PTSUNNY   74  69  85 S8        29.97R
YOUNGSTOWN     CLOUDY    70  67  90 E9        29.97S
$$

OHZ042-051>053-060>062-070>072-077>081-301400-
  SOUTHWEST OHIO

CITY           SKY/WX    TMP DP  RH WIND       PRES   REMARKS
CINC-COVINGTON FOG       72  72 100 W3        29.98R VSB 1/2
CINC-LUNKEN    CLOUDY    73  72  96 SW5       29.97R
HAMILTON       CLOUDY    73  70  90 W6        29.97R
DAYTON         CLOUDY    72  69  90 W5        29.98R FOG
WRIGHT-PAT AFB CLOUDY    72  72 100 W2        29.96R FOG
DAYTON GENERAL CLOUDY    72  68  87 W5        29.96R
WILMINGTON     CLOUDY    70  69  97 W5        29.97R FOG
$$

OHZ036-037-039>041-045>050-054>059-063>069-073>076-082>088-301400-
  CENTRAL AND SOUTHEAST OHIO

CITY           SKY/WX    TMP DP  RH WIND       PRES   REMARKS
COLUMBUS       PTSUNNY   72  69  90 S3        29.95S
OSU AIRPORT    FAIR      75  70  84 S6        29.95S
BOLTON FIELD   PTSUNNY   72  72 100 S5          N/A
RICKENBACK AFB FAIR      71  70  97 S6        29.96S
NEWARK         PTSUNNY   73  70  90 SW5       29.95S
MARION         FAIR      73  68  84 S7        29.96S
LANCASTER      CLOUDY    72  70  93 W5        29.97S
ZANESVILLE     CLOUDY    72  69  90 S5        29.96S FOG
NEW PHILLY     CLOUDY    72  68  87 CALM      29.96S
$$



USA.gov is the U.S. government's official web portal to all federal, state and local government web resources and services.